Content
SEND FEEDBACK

Daily
Averages
Monthly
Summary
Mexico

CANCUN, QUINTANA ROO


Home > North America > Mexico > Quintana Roo
Elevation: 30 feet     Latitude: 21 09N     Longitude: 086 49W

WEATHER
 
SELECT A DAY
Number of Records: 165,850;   Date Range: 1/1/95 - 9/30/14
 
SHARE

PRINT THIS DATA

[ ← Previous Day ]
WEATHER ALMANAC - MARCH 19, 2013
[ Next Day → ]
[ °C ]   °F
Weather ElementAverageHighLow
Temperature79.6 °F84.2 °F (10:47 am)75.2 °F (4:44 am)
Dewpoint72.1 °F73.4 °F (1:44 am)71.6 °F (3:45 am)
Humidity78.3 %89 % (2:46 am)66 % (10:47 am)
Barometer29.93 in29.98 in (8:48 am)29.86 in (2:46 am)
Wind Speed12.6 mph20.7 mph (11:46 am)
Weather ElementAverage
Visibility7 mi
Wind DirectionESE (127.9 °)

Weather ElementTotal
Precipitation---
Cooling Degree Days14.7 (Base 65)
Growing Degree Days29.7 (Base 50)
Averaged from 24 records on March 19, 2013
WEATHER CONDITIONS BREAKOUT
WIND DIRECTION BREAKOUT
WEATHER BY HOUR - MARCH 19, 2013
[ °C ]   °F
Local TimeTemperatureDewpointHumidityBarometerVisibilityWind DirectionWind SpeedGust SpeedPrecipitationEventsConditions
1:44 AM78.8 °F73.4 °F83 %29.88 in7.0 miSE (140°)10.4 mphMostly Cloudy
2:46 AM77.0 °F73.4 °F89 %29.86 in7.0 miSE (140°)6.9 mphMostly Cloudy
3:45 AM77.0 °F71.6 °F83 %29.88 in7.0 miSE (140°)11.5 mphMostly Cloudy
4:44 AM75.2 °F71.6 °F89 %29.90 in7.0 miSE (130°)6.9 mphMostly Cloudy
5:43 AM75.2 °F71.6 °F89 %29.88 in7.0 miESE (110°)5.8 mphMostly Cloudy
6:42 AM77.0 °F73.4 °F89 %29.94 in7.0 miEast (100°)5.8 mphScattered Clouds
7:49 AM80.6 °F71.6 °F74 %29.96 in7.0 miSSE (150°)10.4 mphScattered Clouds
8:48 AM82.4 °F71.6 °F70 %29.98 in7.0 miESE (120°)11.5 mphScattered Clouds
9:43 AM82.4 °F71.6 °F70 %29.98 in7.0 miSSE (160°)11.5 mphScattered Clouds
10:47 AM84.2 °F71.6 °F66 %29.98 in7.0 miSE (140°)15.0 mphScattered Clouds
11:46 AM84.2 °F71.6 °F66 %29.98 in7.0 miSE (140°)20.7 mphMostly Cloudy
12:45 PM84.2 °F71.6 °F66 %29.94 in7.0 miSE (140°)17.3 mphMostly Cloudy
1:45 PM82.4 °F73.4 °F74 %29.92 in7.0 miESE (110°)15.0 mphMostly Cloudy
2:44 PM82.4 °F71.6 °F70 %29.92 in7.0 miESE (120°)13.8 mphMostly Cloudy
3:45 PM80.6 °F71.6 °F74 %29.91 in7.0 miSE (140°)17.3 mphMostly Cloudy
4:44 PM80.6 °F73.4 °F79 %29.91 in7.0 miESE (120°)13.8 mphMostly Cloudy
5:45 PM78.8 °F71.6 °F78 %29.93 in7.0 miESE (120°)10.4 mphScattered Clouds
6:43 PM78.8 °F71.6 °F78 %29.92 in7.0 miESE (120°)12.7 mphScattered Clouds
7:40 PM78.8 °F71.6 °F78 %29.93 in7.0 miESE (120°)10.4 mphScattered Clouds
8:42 PM78.8 °F73.4 °F83 %29.95 in7.0 miESE (110°)13.8 mphMostly Cloudy
8:51 PM78.8 °F73.4 °F83 %29.95 in7.0 miESE (110°)13.8 mphMostly Cloudy
9:45 PM77.0 °F71.6 °F83 %29.92 in7.0 miSE (130°)15.0 mphScattered Clouds
10:46 PM77.0 °F71.6 °F83 %29.92 in7.0 miSE (130°)18.4 mphScattered Clouds
11:46 PM77.0 °F71.6 °F83 %29.91 in7.0 miSE (130°)13.8 mphScattered Clouds
Hourly data recorded from MMUN, located miles away from Cancun, Quintana Roo







STORIES FROM OUR PARTNERS